Simultaneous Nadir Overpasses (SNOs) Predictions

Prediction of SNOs between FY3D and NOAA-19 Satellite Orbit:

Table of predicted SNOs for the next 14.0 days since TLE Epoch: 8/15/2020
Index Date (FY3D) Time (FY3D) Lat,Lon (FY3D) SZA (FY3D ) Date (NOAA-19) Time (NOAA-19) Lat,Lon (NOAA-19) SZA (NOAA-19 ) Distance(km) Time Diff (sec)
1 08/21/2020 23:03:41 -79.22, -16.66 110.87 08/21/2020 23:02:31 -79.22, -16.62 110.85 1.11 70
2 08/21/2020 23:54:26 79.23, 150.63 69.15 08/21/2020 23:53:33 79.21, 150.58 69.16 1.98 53
3 08/22/2020 00:45:10 -79.22, -42.02 110.85 08/22/2020 00:44:31 -79.23, -41.98 110.83 1.43 39
4 08/22/2020 01:35:55 79.22, 125.27 69.17 08/22/2020 01:35:33 79.23, 125.22 69.19 1.12 22
5 08/22/2020 02:26:39 -79.22, -67.38 110.83 08/22/2020 02:26:31 -79.25, -67.34 110.81 3.27 8
6 08/22/2020 03:17:24 79.22, 99.92 69.19 08/22/2020 03:17:33 79.24, 99.87 69.21 2.62 9
7 08/22/2020 04:08:09 -79.25, -93.00 110.76 08/22/2020 04:08:32 -79.23, -92.97 110.79 2.18 23
8 08/22/2020 04:58:54 79.25, 74.30 69.26 08/22/2020 04:59:34 79.23, 74.25 69.23 2.96 40
9 08/22/2020 05:49:38 -79.25,-118.35 110.74 08/22/2020 05:50:32 -79.25,-118.32 110.76 0.61 54
10 08/22/2020 06:40:23 79.25, 48.94 69.28 08/22/2020 06:41:34 79.25, 48.89 69.25 1.21 71
